Regional Weather Roundup
Issued by NWS

Home | Current Version | Previous Version | Text Only | Print | Product List | Glossary Off
Versions: 1 2 3 4 5 6 7 8 9 10 11 12 13 14 15 16 17 18 19 20 21 22 23 24 25 26 27 28 29 30 31 32 33 34 35 36 37 38 39 40 41 42 43 44 45 46 47 48 49 50

000
ASUS43 KOAX 231710
RWRNE

WEATHER ROUNDUP FOR NEBRASKA
NATIONAL WEATHER SERVICE OMAHA NE
1200 PM CDT WED MAY 23 2018

NOTES: SATELLITE DATA IS BEING USED TO AUGMENT CLOUD COVER ABOVE
       12000 FEET.
       "FAIR" INDICATES FEW OR NO CLOUDS BELOW 12,000 FEET WITH NO
       SIGNIFICANT WEATHER AND/OR OBSTRUCTIONS TO VISIBILITY.


NEZ001>004-019>022-054>056-231800-
NEBRASKA PANHANDLE

CITY           SKY/WX    TMP DP  RH WIND       PRES   REMARKS
SCOTTSBLUFF    MOSUNNY   71  56  58 CALM      29.98S
ALLIANCE       PTSUNNY   72  57  59 N8        29.96F
CHADRON        PTSUNNY   65  58  78 VRB3      29.96F
GORDON         PTSUNNY   69  58  69 CALM      29.97R
KIMBALL        MOSUNNY   70  52  52 SE6       30.01F
SIDNEY         MOSUNNY   72  56  57 MISG      29.99F
$$

NEZ057>060-069>072-079>082-231800-
SOUTHWEST NEBRASKA

CITY           SKY/WX    TMP DP  RH WIND       PRES   REMARKS
NORTH PLATTE   PTSUNNY   76  60  57 S10       29.98S
IMPERIAL       PTSUNNY   77  53  43 S23G31    29.97F
LEXINGTON      PTSUNNY   77  62  59 S12       30.01F
MCCOOK         PTSUNNY   79  58  48 S9G20     29.98F
OGALLALA       PTSUNNY   77  54  44 S13       29.96R
$$

NEZ005>010-023>029-035>040-094-231800-
NORTH CENTRAL NEBRASKA

CITY           SKY/WX    TMP DP  RH WIND       PRES   REMARKS
VALENTINE      MOSUNNY   81  60  48 SW14G21   29.93S
AINSWORTH      MOSUNNY   79  63  57 S12       29.95S
BROKEN BOW     MOSUNNY   80  61  52 S21       30.00R
O`NEILL        MOSUNNY   82  64  53 S17G23    29.98S
ORD            MOSUNNY   80  63  55 S18G26    29.98R
THEDFORD       PTSUNNY   80  53  38 S20G25    29.97R
$$

NEZ041-046>049-061>064-073>077-083>087-231800-
SOUTH CENTRAL NEBRASKA

CITY           SKY/WX    TMP DP  RH WIND       PRES   REMARKS
GRAND ISLAND   SUNNY     83  66  56 S16G28    30.01F
AURORA         SUNNY     84  64  50 S17G23    30.02S
HASTINGS       SUNNY     82  65  56 S14G23    30.02F
HEBRON         MOSUNNY   87  60  39 S12G24    30.04F
HOLDREGE       CLOUDY    78  63  60 S14       30.01F
KEARNEY        CLOUDY    79  62  56 SW13G22   30.02S
YORK           SUNNY     86  63  45 S17       30.03S
$$

NEZ011>018-030>034-042>045-231800-
NORTHEAST NEBRASKA

CITY           SKY/WX    TMP DP  RH WIND       PRES   REMARKS
NORFOLK        CLOUDY    86  63  45 S15G25    30.00S
ALBION         MOSUNNY   82  67  59 S20G25    30.01S
BLAIR          SUNNY     84  68  58 S13G18    30.06F
COLUMBUS       SUNNY     87  64  46 S15G28    30.03S
FREMONT        MOSUNNY   86  65  48 S13G18    30.05S
TEKAMAH        CLOUDY    83  70  64 S16       30.04S
WAYNE          MOSUNNY   83  68  60 S16       30.03R
$$

NEZ050>053-065>068-078-088>093-231800-
SOUTHEAST NEBRASKA

CITY           SKY/WX    TMP DP  RH WIND       PRES   REMARKS
LINCOLN        SUNNY     86  65  49 S18G26    30.04S
OMAHA EPPLEY   MOSUNNY   85  63  47 S13G22    30.06S
BEATRICE       PTSUNNY   85  67  54 S14G21    30.06S
FALLS CITY     MOSUNNY   85  63  47 S10       30.07S
NEBRASKA CITY  MOSUNNY   86  67  52 S16G22    30.07F
PLATTSMOUTH    MOSUNNY   85  67  55 S14G20    30.07S
$$

NEZ044-045-051>053-067-231800-
OMAHA AREA

CITY           SKY/WX    TMP DP  RH WIND       PRES   REMARKS
OMAHA EPPLEY   MOSUNNY   85  63  47 S13G22    30.06S
BLAIR          SUNNY     84  68  58 S13G18    30.06F
FREMONT        MOSUNNY   86  65  48 S13G18    30.05S
MILLARD        MOSUNNY   85  69  57 S10G18    30.06S
OFFUTT AFB     MOSUNNY   84  70  61 SE12      30.05F
PLATTSMOUTH    MOSUNNY   85  67  55 S14G20    30.07S
WAHOO          FAIR      88  60  39 S16G22    30.05S
$$




USA.gov is the U.S. government's official web portal to all federal, state and local government web resources and services.